Weather History for KTOI - September, 2013

Change the Weather History Date:

Wednesday, September 11, 2013

  Actual Average Record
Temperature  
Mean Temperature 80 °F 77 °F  
Max Temperature 92 °F 88 °F 97 °F (2002)
Min Temperature 68 °F 66 °F 53 °F (2011)
Degree Days  
Heating Degree Days 0 0  
Month to date heating degree days 0 0  
Since 1 July heating degree days 0 0  
Cooling Degree Days 15 12  
Month to date cooling degree days 176 144  
Year to date cooling degree days 1823 1778  
Growing Degree Days 30 (Base 50)    
Moisture  
Dew Point 67 °F    
Average Humidity 66    
Maximum Humidity 90    
Minimum Humidity 41    
Precipitation  
Precipitation 0.00 in 0.15 in 0.12 in (2004)
Month to date precipitation 0.78 1.55  
Year to date precipitation 46.39 39.50  
Sea Level Pressure  
Sea Level Pressure 30.13 in    
Wind  
Wind Speed 3 mph (NE)    
Max Wind Speed 13 mph    
Max Gust Speed 16 mph    
Visibility 8 miles    
Events      
T = Trace of Precipitation, MM = Missing Value Source: NWS Daily Summary

Daily Weather History Graph

Daily Weather History Graph

Search for Another Location

Airport or City:

Trip Planner

Search our weather history database for the weather conditions in past years. The results will help you decide how hot, cold, wet, or windy it might be!

Date:

Astronomy

Sep. 11, 2013 Rise Set
Actual Time 6:25 AM CDT 6:54 PM CDT
Civil Twilight 6:01 AM CDT 7:19 PM CDT
Nautical Twilight 5:32 AM CDT 7:48 PM CDT
Astronomical Twilight 5:03 AM CDT 8:17 PM CDT
Moon 12:30 PM CDT (9/11) 11:13 PM CDT (9/11)
Length of Visible Light 13h 18m
Length of Day
12h 29m
Waxing Crescent, 39% of the Moon is Illuminated
Sep 11
Waxing Crescent
Sep 12
First Quarter
Sep 19
Full
Sep 26
Last Quarter
Oct 4
New

Hourly Weather History & Observations

Time (CDT) Temp. Heat Index Dew Point Humidity Pressure Visibility Wind Dir Wind Speed Gust Speed Precip Events Conditions
12:53 AM 73.0 °F - 69.1 °F 87% 30.14 in 10.0 mi ENE 3.5 mph - N/A   Clear
1:53 AM 73.0 °F - 68.0 °F 84% 30.12 in 10.0 mi ENE 4.6 mph - N/A   Clear
2:53 AM 72.0 °F - 66.9 °F 84% 30.13 in 10.0 mi NNW 3.5 mph - N/A   Clear
3:53 AM 71.1 °F - 66.9 °F 87% 30.13 in 9.0 mi Calm Calm - N/A   Clear
4:53 AM 70.0 °F - 66.0 °F 87% 30.14 in 6.0 mi Calm Calm - N/A   Clear
5:53 AM 68.0 °F - 64.9 °F 90% 30.16 in 5.0 mi Calm Calm - N/A   Clear
6:11 AM 68.0 °F - 64.4 °F 88% 30.17 in 2.5 mi Calm Calm - N/A   Clear
6:21 AM 68.0 °F - 64.4 °F 88% 30.17 in 5.0 mi Calm Calm - N/A   Clear
6:53 AM 68.0 °F - 64.9 °F 90% 30.17 in 3.0 mi Calm Calm - N/A   Clear
7:53 AM 73.9 °F - 69.1 °F 85% 30.18 in 10.0 mi ENE 3.5 mph - N/A   Clear
8:53 AM 79.0 °F - 70.0 °F 74% 30.18 in 10.0 mi NE 3.5 mph - N/A   Clear
9:53 AM 82.9 °F 87.0 °F 70.0 °F 65% 30.19 in 10.0 mi ENE 9.2 mph - N/A   Clear
10:53 AM 86.0 °F 89.4 °F 68.0 °F 55% 30.17 in 10.0 mi ENE 9.2 mph - N/A   Clear
11:53 AM 88.0 °F 91.4 °F 68.0 °F 51% 30.16 in 10.0 mi NE 5.8 mph - N/A   Partly Cloudy
12:53 PM 90.0 °F 92.4 °F 66.0 °F 45% 30.14 in 10.0 mi ENE 6.9 mph - N/A   Partly Cloudy
1:53 PM 90.0 °F 91.3 °F 64.0 °F 42% 30.12 in 10.0 mi ENE 9.2 mph - N/A   Clear
2:53 PM 91.0 °F 93.0 °F 64.9 °F 42% 30.10 in 10.0 mi Variable 6.9 mph - N/A   Partly Cloudy
3:53 PM 91.0 °F 93.0 °F 64.9 °F 42% 30.09 in 10.0 mi ENE 8.1 mph - N/A   Clear
4:53 PM 90.0 °F 91.3 °F 64.0 °F 42% 30.08 in 10.0 mi ENE 5.8 mph - N/A   Clear
5:53 PM 88.0 °F 89.6 °F 64.9 °F 46% 30.07 in 10.0 mi ENE 3.5 mph - N/A   Clear
6:53 PM 80.1 °F 83.2 °F 70.0 °F 71% 30.08 in 10.0 mi Calm Calm - N/A   Clear
7:53 PM 75.9 °F - 70.0 °F 82% 30.08 in 10.0 mi Calm Calm - N/A   Clear
8:53 PM 75.0 °F - 70.0 °F 84% 30.09 in 9.0 mi Calm Calm - N/A   Clear
9:53 PM 73.9 °F - 69.1 °F 85% 30.10 in 9.0 mi Calm Calm - N/A   Clear
10:53 PM 73.0 °F - 69.1 °F 87% 30.09 in 6.0 mi Calm Calm - N/A   Clear
11:53 PM 71.1 °F - 66.9 °F 87% 30.08 in 5.0 mi Calm Calm - N/A   Clear